Location: Delettes
(50.6178°N, 2.2123°E)
Time: 15:53:39
(UTC+00:00)

Cosmos 1763 Rocket - Pass Details

Date: 27 February 2020
Orbit: 732 x 780 km, 74.0° (Epoch: 07 April)

Event Time Altitude Azimuth Distance (km) Brightness Sun altitude
Rises 19:00:43 0° 194° (SSW) 3,209 6.8 -15.4°
Reaches altitude 10° 19:03:04 10° 192° (SSW) 2,295 6.0 -15.8°
Maximum altitude 19:08:15 68° 110° (ESE) 830 3.4 -16.6°
Drops below altitude 10° 19:13:31 10° 28° (NNE) 2,337 5.8 -17.4°
Sets 19:15:56 0° 26° (NNE) 3,273 6.6 -17.8°
